[[{"header":{"parameterUnit":"m.s-1","parameterCategory":1,"la1":30.2991,"la2":30.254,"lo1":-89.0895,"lo2":-89.0444,"dy":0.0017,"dx":0.0017,"nx":28,"ny":28,"refTime":"2026-02-07T03:00:00:Z","depth":0,"parameterNumber":2,"parameterNumberName":"U-component_of_WINDS"},"data":[0,0,0,0,0,0,0,0,0,0,0,0,0,0,0,0,0,0,0,0,0,0,0,0,0,0,0,0,0,0,0,0,0,0,0,0,0,0,0,0,0,0,0,0,0,0,0,0,0,0,0,0,0,0,0,0,0,0,-3.1688,-3.1689,0,-3.1766,-3.1767,-3.1768,-3.1674,-3.167,-3.1667,-3.1664,-3.1747,-3.1752,-3.1758,0,0,0,0,0,0,0,0,0,0,0,0,0,-3.1463,-3.1468,-3.1688,-3.1689,-3.169,-3.1766,-3.1767,-3.1768,-3.1674,-3.167,-3.1666,-3.1662,-3.1745,-3.1752,-3.1758,0,0,0,0,0,0,0,0,0,0,0,0,0,-3.1553,-3.1469,-3.1688,-3.1652,-3.165,-3.1765,-3.1767,-3.1768,-3.1675,-3.167,-3.1665,-3.166,-3.1743,-3.1751,-3.1759,-3.1914,0,0,-3.1784,-3.1788,0,0,0,0,0,0,0,0,-3.1548,-3.1561,-3.1657,-3.1655,-3.1652,-3.1705,-3.1718,-3.1817,-3.1677,-3.1666,-3.1663,-3.1657,-3.1737,-3.1746,-3.1772,-3.1918,-3.1922,-3.1785,-3.179,-3.1793,-3.1796,0,0,0,0,0,0,0,-3.1542,-3.1557,-3.1719,-3.1658,-3.1656,-3.1634,-3.1641,-3.1736,-3.173,-3.1666,-3.166,-3.167,-3.1735,-3.1764,-3.1773,-3.1923,-3.1785,-3.1792,-3.1797,-3.18,-3.2204,-3.2209,0,0,0,0,0,0,-3.1539,-3.1553,-3.1716,-3.1721,-3.1586,-3.1642,-3.165,-3.1693,-3.1729,-3.1729,-3.1674,-3.1665,-3.1753,-3.1764,-3.1776,-3.1962,-3.1793,-3.1801,-3.1806,-3.2198,-3.2205,-3.2211,0,0,0,0,0,0,-3.1535,-3.1555,-3.1713,-3.1635,-3.1654,-3.1652,-3.1701,-3.1698,-3.1726,-3.1735,-3.1734,-3.1705,-3.1749,-3.1764,-3.1881,-3.1964,-3.1805,-3.1812,-3.2191,-3.22,-3.2208,-3.2335,0,0,0,0,0,0,-3.1529,-3.1553,-3.1611,-3.1637,-3.1658,-3.1816,-3.1706,-3.1703,-3.174,-3.1729,-3.1763,-3.1764,-3.1746,-3.1869,-3.1889,-3.1972,-3.1819,-3.2184,-3.2195,-3.2205,-3.2323,-3.2347,-3.2367,0,0,0,0,0,-3.1521,-3.1644,-3.1615,-3.1635,-3.173,-3.1821,-3.1833,-3.1809,-3.1747,-3.1806,-3.1812,-3.1763,-3.1951,-3.1882,-3.1904,-3.199,-3.2179,-3.2192,-3.2205,-3.2314,-3.2342,-3.2366,0,0,0,0,0,0,-3.1628,-3.1647,-3.1614,-3.1749,-3.1784,-3.1805,-3.1878,-3.184,-3.1894,-3.1882,-3.1851,-3.186,-3.1985,-3.1998,-3.1921,-3.2144,-3.2055,-3.2073,-3.213,-3.2158,-3.2179,-3.2174,-3.1825,0,0,0,0,0,-3.1668,-3.1738,-3.1751,-3.1869,-3.1888,-3.1881,-3.1919,-3.1898,-3.1933,-3.1948,-3.1962,-3.2,-3.2068,-3.2113,-3.2175,-3.2324,-3.2332,-3.2395,-3.2417,-3.2434,-3.2451,-3.2534,-3.2563,-3.2254,-3.2254,-3.2254,0,0,-3.175,-3.1768,-3.1815,-3.1891,-3.1916,-3.1992,-3.1894,-3.1977,-3.2034,-3.1961,-3.2073,-3.2085,-3.2125,-3.2259,-3.2319,-3.2275,-3.2538,-3.2451,-3.2465,-3.2472,-3.255,-3.258,-3.2606,-3.2263,-3.2261,-3.226,0,0,-3.1939,-3.1959,-3.2061,-3.2087,-3.2126,-3.212,-3.2145,-3.2172,-3.2177,-3.2288,-3.2236,-3.2304,-3.242,-3.2452,-3.2483,-3.2686,-3.2644,-3.2708,-3.2822,-3.2903,-3.2928,-3.2949,-3.3025,-3.3052,-3.2724,-3.2724,-3.2724,0,-3.2036,-3.2147,-3.2118,-3.2206,-3.2243,-3.2179,-3.2283,-3.2311,-3.2369,-3.2396,-3.2345,-3.2492,-3.2514,-3.2657,-3.2706,-3.2733,-3.2762,-3.2704,-3.2926,-3.2948,-3.2967,-3.3039,-3.3067,-3.2732,-3.2731,-3.273,-3.2729,0,-3.2267,-3.2345,-3.2423,-3.248,-3.2524,-3.262,-3.2608,-3.2657,-3.2632,-3.2633,-3.2748,-3.2773,-3.2841,-3.2872,-3.2849,-3.3013,-3.2984,-3.2931,-3.2841,-3.3005,-3.3072,-3.3099,-3.2743,-3.274,-3.2738,-3.2736,0,0,-3.2526,-3.2566,-3.2596,-3.2622,-3.2661,-3.2721,-3.2815,-3.2881,-3.2925,-3.2967,-3.3047,-3.3148,-3.3099,-3.3135,-3.3115,-3.3186,-3.3349,-3.3123,-3.3124,-3.3167,-3.3534,-3.3576,-3.3608,-3.332,-3.3325,-3.3329,-3.3532,0,-3.2717,-3.2879,-3.2856,-3.3013,-3.3087,-3.3028,-3.3111,-3.3145,-3.3148,-3.3212,-3.3216,-3.3289,-3.3218,-3.324,-3.3307,-3.3315,-3.3423,-3.3299,-3.3397,-3.3401,-3.3391,-3.3642,-3.3687,-3.3876,-3.3557,-3.3562,-3.3565,0,-3.2962,-3.3013,-3.3177,-3.3207,-3.3237,-3.3311,-3.3371,-3.3432,-3.347,-3.3468,-3.3509,-3.3477,-3.3573,-3.3481,-3.3615,-3.3532,-3.357,-3.3581,-3.3587,-3.3597,-3.3494,-3.3662,-3.3936,-3.3966,-3.3605,-3.3602,-3.3599,0,-3.3138,-3.3248,-3.3361,-3.3385,-3.3421,-3.3475,-3.3493,-3.3526,-3.3568,-3.362,-3.3648,-3.3711,-3.3747,-3.3797,-3.3784,-3.3717,-3.3923,-3.3828,-3.3926,-3.3927,-3.3974,-3.3971,-3.426,-3.3995,-3.3994,-3.3994,-3.3993,0,-3.3355,-3.3458,-3.344,-3.351,-3.3625,-3.3599,-3.3714,-3.3725,-3.3755,-3.3828,-3.3781,-3.385,-3.3827,-3.3896,-3.3886,-3.4001,-3.4017,-3.4019,-3.4016,-3.4025,-3.4025,-3.4051,-3.4039,-3.4001,-3.4,-3.3998,-3.3997,0,-3.3571,-3.3563,-3.3683,-3.3708,-3.3717,-3.3801,-3.3823,-3.389,-3.389,-3.3983,-3.4003,-3.4004,-3.4083,-3.4074,-3.4162,-3.4156,-3.4299,-3.4278,-3.4286,-3.4282,-3.4382,-3.4374,-3.47,-3.4742,-3.4447,-3.445,-3.4452,0,-3.3711,-3.379,-3.3823,-3.3868,-3.389,-3.3963,-3.4006,-3.3983,-3.403,-3.4081,-3.4142,-3.4217,-3.4275,-3.4405,-3.4414,-3.4482,-3.4465,-3.4574,-3.4475,-3.4482,-3.447,-3.4466,-3.4475,-3.4595,-3.4598,-3.4601,-3.4603,0,-3.3962,-3.3955,-3.4017,-3.408,-3.4132,-3.418,-3.4223,-3.4263,-3.4245,-3.4301,-3.4381,-3.4426,-3.4517,-3.4593,-3.4657,-3.4677,-3.4639,-3.4634,-3.4661,-3.4672,-3.4674,-3.4677,-3.4342,-3.4627,-3.4625,-3.4623,-3.4622,-3.4621,-3.4146,-3.4214,-3.4249,-3.4321,-3.4352,-3.4394,-3.4459,-3.4468,-3.4533,-3.4605,-3.4588,-3.4679,-3.4718,-3.4801,-3.4828,-3.49,-3.486,-3.4899,-3.4909,-3.4919,-3.4932,-3.4661,-3.4912,-3.4911,-3.491,-3.491,-3.4909,0,-3.4397,-3.4416,-3.4483,-3.4546,-3.4604,-3.456,-3.4607,-3.4659,-3.4739,-3.4778,-3.4837,-3.4931,-3.5004,-3.502,-3.5091,-3.5146,-3.5131,-3.5166,-3.5163,-3.5169,-3.4962,-3.4933,-3.5178,-3.5178,-3.5178,-3.5178,-3.5177,-3.5177,-3.4534,-3.4647,-3.4645,-3.4774,-3.4793,-3.4882,-3.4913,-3.4952,-3.4983,-3.509,-3.5151,-3.516,-3.5191,-3.5264,-3.5331,-3.5334,-3.5363,-3.5406,-3.5403,-3.521,-3.5183,-3.5157,-3.513,-3.5412,-3.5413,-3.5604,-3.5606,-3.5607]},{"header":{"parameterUnit":"m.s-1","parameterCategory":1,"la1":30.2991,"la2":30.254,"lo1":-89.0895,"lo2":-89.0444,"dy":0.0017,"dx":0.0017,"nx":28,"ny":28,"refTime":"2026-02-07T03:00:00:Z","depth":0,"parameterNumber":3,"parameterNumberName":"V-component_of_WINDS"},"data":[0,0,0,0,0,0,0,0,0,0,0,0,0,0,0,0,0,0,0,0,0,0,0,0,0,0,0,0,0,0,0,0,0,0,0,0,0,0,0,0,0,0,0,0,0,0,0,0,0,0,0,0,0,0,0,0,0,0,-2.2556,-2.2557,0,-2.2634,-2.2635,-2.2635,-2.2624,-2.2623,-2.2621,-2.262,-2.2702,-2.2705,-2.2708,0,0,0,0,0,0,0,0,0,0,0,0,0,-2.2399,-2.2402,-2.2556,-2.2557,-2.2558,-2.2634,-2.2635,-2.2636,-2.2624,-2.2623,-2.2621,-2.262,-2.2701,-2.2705,-2.2709,0,0,0,0,0,0,0,0,0,0,0,0,0,-2.2471,-2.2403,-2.2556,-2.2561,-2.2562,-2.2633,-2.2635,-2.2636,-2.2625,-2.2623,-2.2621,-2.2619,-2.2699,-2.2704,-2.2709,-2.278,0,0,-2.2725,-2.2727,0,0,0,0,0,0,0,0,-2.2467,-2.2477,-2.2559,-2.2561,-2.2562,-2.2617,-2.2609,-2.2684,-2.2625,-2.2601,-2.262,-2.2618,-2.2675,-2.2682,-2.2701,-2.2784,-2.2788,-2.2725,-2.2728,-2.2731,-2.2732,0,0,0,0,0,0,0,-2.2462,-2.2473,-2.2587,-2.2561,-2.2562,-2.256,-2.2568,-2.2623,-2.2648,-2.2603,-2.2602,-2.2612,-2.2676,-2.2696,-2.2703,-2.2789,-2.2725,-2.273,-2.2733,-2.2735,-2.2934,-2.2937,0,0,0,0,0,0,-2.2455,-2.2469,-2.2584,-2.2589,-2.2509,-2.2565,-2.2574,-2.2602,-2.2648,-2.2653,-2.2613,-2.2611,-2.2689,-2.2697,-2.2706,-2.2792,-2.2731,-2.2735,-2.2738,-2.2932,-2.2935,-2.2937,0,0,0,0,0,0,-2.2452,-2.2465,-2.2581,-2.2529,-2.2543,-2.2569,-2.2601,-2.2604,-2.2625,-2.2655,-2.266,-2.263,-2.2687,-2.2699,-2.2762,-2.2795,-2.2738,-2.2742,-2.293,-2.2933,-2.2936,-2.2966,0,0,0,0,0,0,-2.2447,-2.2464,-2.2491,-2.253,-2.2546,-2.2635,-2.2603,-2.2607,-2.2633,-2.2631,-2.2672,-2.2677,-2.2687,-2.2754,-2.2767,-2.2801,-2.2746,-2.2927,-2.2931,-2.2935,-2.2962,-2.297,-2.2976,0,0,0,0,0,-2.2442,-2.2497,-2.2493,-2.2507,-2.258,-2.2637,-2.2647,-2.2656,-2.2636,-2.2664,-2.2683,-2.2676,-2.2789,-2.2761,-2.2775,-2.2811,-2.2925,-2.293,-2.2935,-2.2959,-2.2968,-2.2976,0,0,0,0,0,0,-2.2462,-2.2502,-2.2498,-2.2567,-2.2599,-2.2635,-2.267,-2.2666,-2.2705,-2.2701,-2.2712,-2.2721,-2.2785,-2.2805,-2.2772,-2.2883,-2.2854,-2.2862,-2.2868,-2.2877,-2.2884,-2.2878,-2.2751,0,0,0,0,0,-2.2475,-2.2517,-2.255,-2.2607,-2.2623,-2.2644,-2.2669,-2.2674,-2.2707,-2.2721,-2.2745,-2.2779,-2.2822,-2.2851,-2.2892,-2.2965,-2.2974,-2.2997,-2.3004,-2.3009,-2.3017,-2.3057,-2.3067,-2.2954,-2.2954,-2.2954,0,0,-2.2501,-2.2528,-2.2554,-2.2612,-2.2637,-2.2681,-2.2656,-2.2703,-2.2736,-2.2729,-2.279,-2.2809,-2.2847,-2.2915,-2.2946,-2.2933,-2.305,-2.3016,-2.302,-2.3024,-2.3063,-2.3074,-2.3083,-2.2957,-2.2957,-2.2956,0,0,-2.2572,-2.2596,-2.2647,-2.2673,-2.2711,-2.2724,-2.2736,-2.2774,-2.2786,-2.2847,-2.2842,-2.2882,-2.2956,-2.2984,-2.3007,-2.3088,-2.3083,-2.3102,-2.314,-2.3179,-2.3188,-2.3196,-2.3225,-2.3236,-2.3109,-2.3109,-2.3109,0,-2.26,-2.2665,-2.2674,-2.2722,-2.2748,-2.2742,-2.2794,-2.2819,-2.2869,-2.2888,-2.2872,-2.2965,-2.299,-2.3065,-2.3085,-2.3104,-2.3119,-2.3097,-2.3186,-2.3194,-2.3201,-2.323,-2.3241,-2.3111,-2.311,-2.311,-2.311,0,-2.2698,-2.2744,-2.2781,-2.2829,-2.2859,-2.2908,-2.2925,-2.2954,-2.2956,-2.2972,-2.3034,-2.3064,-2.3112,-2.313,-2.3133,-2.3206,-2.3196,-2.3183,-2.3155,-2.3214,-2.3241,-2.3252,-2.3114,-2.3113,-2.3112,-2.3112,0,0,-2.2784,-2.2836,-2.2849,-2.2871,-2.2913,-2.2949,-2.2999,-2.3045,-2.307,-2.3105,-2.3147,-2.321,-2.3198,-2.3225,-2.3231,-2.3265,-2.3328,-2.3248,-2.3249,-2.3262,-2.3411,-2.3421,-2.3433,-2.3324,-2.3327,-2.3328,-2.3408,0,-2.2859,-2.2947,-2.2956,-2.3034,-2.3077,-2.3072,-2.3116,-2.3146,-2.3162,-2.3201,-2.3218,-2.3263,-2.3243,-2.3259,-2.3293,-2.3313,-2.3358,-2.3308,-2.3365,-2.3367,-2.3356,-2.3447,-2.3458,-2.3531,-2.3418,-2.342,-2.3421,0,-2.2958,-2.2995,-2.3078,-2.3114,-2.3132,-2.3171,-2.3214,-2.3251,-2.3286,-2.3295,-2.3325,-2.3326,-2.3378,-2.3348,-2.342,-2.3386,-2.341,-2.3423,-2.3426,-2.3433,-2.3398,-2.3456,-2.3555,-2.3566,-2.3438,-2.3436,-2.3435,0,-2.3013,-2.3084,-2.3143,-2.3161,-2.3205,-2.3232,-2.3252,-2.3285,-2.3312,-2.335,-2.3367,-2.3411,-2.3435,-2.3469,-2.3482,-2.3459,-2.3555,-2.3525,-2.3564,-2.3564,-2.3585,-2.3583,-2.3689,-2.36,-2.3599,-2.3599,-2.3599,0,-2.3096,-2.3147,-2.3168,-2.3204,-2.3261,-2.3271,-2.3327,-2.3346,-2.3375,-2.3415,-2.3414,-2.3452,-2.3466,-2.3507,-2.3518,-2.3576,-2.3587,-2.3597,-2.3599,-2.3597,-2.3596,-2.3613,-2.3609,-2.3602,-2.3601,-2.3601,-2.36,0,-2.3167,-2.3183,-2.3247,-2.3283,-2.3293,-2.3333,-2.3364,-2.3399,-2.3414,-2.3465,-2.3478,-2.3501,-2.3549,-2.3565,-2.3623,-2.363,-2.3699,-2.3697,-2.3687,-2.3688,-2.3726,-2.3722,-2.3847,-2.3865,-2.3763,-2.3764,-2.3764,0,-2.322,-2.3258,-2.3298,-2.3325,-2.3345,-2.3388,-2.3415,-2.3427,-2.3456,-2.3498,-2.3529,-2.3576,-2.3614,-2.369,-2.3713,-2.3758,-2.3757,-2.3798,-2.3764,-2.3761,-2.3758,-2.3756,-2.376,-2.3804,-2.3805,-2.3806,-2.3807,0,-2.3311,-2.3316,-2.3356,-2.3398,-2.3431,-2.3465,-2.3498,-2.352,-2.3536,-2.3569,-2.3617,-2.3647,-2.3706,-2.3753,-2.3798,-2.3819,-2.3816,-2.3817,-2.3829,-2.3827,-2.382,-2.3825,-2.3705,-2.3814,-2.3814,-2.3813,-2.3813,-2.3812,-2.3374,-2.3409,-2.3442,-2.3486,-2.3512,-2.3543,-2.3578,-2.3597,-2.3637,-2.3685,-2.369,-2.3742,-2.3777,-2.3837,-2.386,-2.3902,-2.3891,-2.3907,-2.3911,-2.3915,-2.3919,-2.3813,-2.391,-2.391,-2.391,-2.3909,-2.3909,0,-2.3466,-2.3487,-2.3527,-2.3573,-2.3608,-2.3601,-2.3637,-2.3667,-2.3713,-2.3745,-2.3782,-2.3838,-2.3884,-2.391,-2.3956,-2.3984,-2.3984,-2.3996,-2.3995,-2.4,-2.3926,-2.3911,-2.3996,-2.3996,-2.3995,-2.3995,-2.3995,-2.3995,-2.3517,-2.3575,-2.3585,-2.3656,-2.3677,-2.3728,-2.3749,-2.3778,-2.3804,-2.3866,-2.3903,-2.392,-2.395,-2.3998,-2.404,-2.4047,-2.4064,-2.4077,-2.4083,-2.4014,-2.4005,-2.3996,-2.3983,-2.4081,-2.4081,-2.4153,-2.4154,-2.4154]}]]